[[{"header":{"parameterUnit":"m.s-1","parameterCategory":1,"la1":30.2991,"la2":30.254,"lo1":-89.0895,"lo2":-89.0444,"dy":0.0017,"dx":0.0017,"nx":28,"ny":28,"refTime":"2026-02-08T09:00:00:Z","depth":0,"parameterNumber":2,"parameterNumberName":"U-component_of_WINDS"},"data":[0,0,0,0,0,0,0,0,0,0,0,0,0,0,0,0,0,0,0,0,0,0,0,0,0,0,0,0,0,0,0,0,0,0,0,0,0,0,0,0,0,0,0,0,0,0,0,0,0,0,0,0,0,0,0,0,0,0,0.4433,0.4434,0,0.4516,0.4517,0.4518,0.4516,0.4515,0.4514,0.4513,0.4605,0.4608,0.4612,0,0,0,0,0,0,0,0,0,0,0,0,0,0.428,0.4282,0.4433,0.4434,0.4435,0.4516,0.4517,0.4518,0.4516,0.4515,0.4513,0.4512,0.4604,0.4608,0.4612,0,0,0,0,0,0,0,0,0,0,0,0,0,0.4353,0.4283,0.4433,0.4444,0.4445,0.4516,0.4517,0.4519,0.4517,0.4515,0.4513,0.4511,0.4602,0.4607,0.4613,0.468,0,0,0.4629,0.4631,0,0,0,0,0,0,0,0,0.4349,0.4359,0.4441,0.4443,0.4445,0.4504,0.4497,0.4573,0.4517,0.449,0.4513,0.4511,0.4573,0.4581,0.46,0.4684,0.4688,0.4629,0.4633,0.4635,0.4636,0,0,0,0,0,0,0,0.4344,0.4355,0.4466,0.4442,0.4445,0.4447,0.4455,0.4511,0.454,0.4492,0.4492,0.4502,0.4574,0.4595,0.4602,0.469,0.4629,0.4634,0.4637,0.4639,0.4835,0.4837,0,0,0,0,0,0,0.4335,0.4351,0.4463,0.4469,0.4391,0.4451,0.446,0.4487,0.454,0.4546,0.4503,0.4501,0.4587,0.4596,0.4606,0.4689,0.4635,0.464,0.4643,0.4833,0.4835,0.4838,0,0,0,0,0,0,0.4332,0.4345,0.446,0.441,0.4424,0.4455,0.4485,0.4489,0.451,0.4548,0.4554,0.4519,0.4586,0.4598,0.4661,0.4692,0.4642,0.4647,0.4831,0.4834,0.4836,0.4855,0,0,0,0,0,0,0.4328,0.4344,0.4368,0.441,0.4427,0.4512,0.4487,0.4492,0.4519,0.4517,0.4564,0.4571,0.4586,0.4653,0.4667,0.4698,0.4651,0.4828,0.4832,0.4835,0.4852,0.4858,0.4864,0,0,0,0,0,0.4322,0.4371,0.4369,0.4383,0.4457,0.4514,0.4524,0.4538,0.4521,0.4547,0.4571,0.4569,0.4686,0.466,0.4675,0.4708,0.4826,0.4831,0.4835,0.4849,0.4857,0.4863,0,0,0,0,0,0,0.4334,0.4377,0.4375,0.4439,0.4472,0.4513,0.4546,0.4546,0.4586,0.4584,0.4602,0.4613,0.4676,0.4699,0.4669,0.4777,0.4755,0.4762,0.476,0.4768,0.4774,0.4767,0.4655,0,0,0,0,0,0.4344,0.4384,0.442,0.4473,0.4489,0.4515,0.454,0.4548,0.4584,0.4599,0.4628,0.4666,0.4711,0.4741,0.4784,0.4855,0.4866,0.4886,0.4892,0.4896,0.4903,0.4944,0.4953,0.4852,0.4852,0.4852,0,0,0.4365,0.4393,0.4418,0.4476,0.4503,0.4546,0.4527,0.4573,0.4606,0.4607,0.4668,0.4691,0.4734,0.4801,0.4832,0.4822,0.4933,0.4902,0.4906,0.491,0.4949,0.4959,0.4967,0.4856,0.4855,0.4855,0,0,0.4426,0.445,0.4497,0.4524,0.4565,0.4581,0.4593,0.4634,0.4648,0.4709,0.4711,0.4752,0.4829,0.486,0.4886,0.496,0.496,0.4974,0.5005,0.5045,0.5053,0.506,0.5087,0.5097,0.498,0.498,0.498,0,0.4447,0.451,0.4522,0.4568,0.4595,0.4596,0.4645,0.4672,0.4725,0.4745,0.4732,0.483,0.4859,0.4934,0.4952,0.4972,0.4988,0.4969,0.505,0.5057,0.5064,0.5091,0.5101,0.4982,0.4982,0.4981,0.4981,0,0.4535,0.4579,0.4613,0.4662,0.4692,0.474,0.4762,0.4792,0.4798,0.4816,0.488,0.4915,0.4966,0.4985,0.4992,0.5062,0.5054,0.5046,0.5023,0.5075,0.51,0.511,0.4984,0.4983,0.4983,0.4983,0,0,0.4605,0.4661,0.4673,0.4696,0.4741,0.4776,0.4825,0.4873,0.4899,0.4937,0.498,0.5045,0.5038,0.5067,0.5078,0.5113,0.517,0.51,0.5102,0.5113,0.5251,0.5258,0.5269,0.5171,0.5173,0.5174,0.5248,0,0.4671,0.4754,0.4767,0.4842,0.4884,0.4886,0.4929,0.4963,0.4982,0.5023,0.5045,0.5092,0.5078,0.5096,0.513,0.5156,0.5198,0.5151,0.5213,0.5215,0.5202,0.5282,0.5289,0.5356,0.5258,0.5259,0.5261,0,0.4758,0.4795,0.4874,0.4914,0.4932,0.497,0.5016,0.5054,0.5093,0.5105,0.5138,0.5145,0.5199,0.5174,0.5249,0.5217,0.5243,0.526,0.5263,0.527,0.5241,0.5292,0.5378,0.5389,0.5276,0.5275,0.5274,0,0.4802,0.4872,0.4928,0.4948,0.4996,0.5023,0.5045,0.5083,0.5111,0.5152,0.5172,0.5219,0.5246,0.5284,0.5305,0.5284,0.5379,0.5356,0.5393,0.5392,0.5413,0.5411,0.5505,0.5429,0.5429,0.5429,0.5428,0,0.4873,0.4922,0.4949,0.4983,0.5038,0.5054,0.5109,0.5131,0.5164,0.5205,0.5211,0.525,0.5275,0.5318,0.5335,0.5396,0.5408,0.5421,0.5425,0.542,0.5419,0.5438,0.5434,0.5431,0.5431,0.543,0.543,0,0.4931,0.4951,0.5013,0.5053,0.5065,0.5103,0.5139,0.5175,0.5194,0.5246,0.5259,0.5291,0.5342,0.5366,0.5431,0.5442,0.5512,0.5512,0.5497,0.5499,0.5535,0.5531,0.5645,0.5662,0.5574,0.5575,0.5575,0,0.4976,0.5012,0.5057,0.5083,0.5105,0.5148,0.5177,0.5195,0.5226,0.5274,0.5304,0.5355,0.5397,0.5479,0.551,0.556,0.5562,0.5599,0.557,0.5564,0.5564,0.5561,0.5566,0.5604,0.5605,0.5605,0.5606,0,0.5053,0.5061,0.5101,0.5145,0.5179,0.5215,0.525,0.5273,0.5297,0.5331,0.5382,0.5415,0.548,0.5531,0.5583,0.5609,0.5613,0.5615,0.5626,0.5622,0.5612,0.5619,0.5512,0.5612,0.5612,0.5611,0.5611,0.561,0.5106,0.5139,0.5175,0.522,0.5249,0.5282,0.5317,0.5341,0.5383,0.5435,0.5445,0.55,0.5541,0.5611,0.5638,0.5683,0.5675,0.5692,0.5696,0.57,0.5702,0.5604,0.5693,0.5693,0.5693,0.5693,0.5693,0,0.5184,0.5207,0.5248,0.5297,0.5333,0.5331,0.5371,0.5402,0.5449,0.5486,0.5527,0.5587,0.5637,0.5672,0.5724,0.5753,0.5757,0.5767,0.5765,0.5771,0.5706,0.5691,0.5763,0.5763,0.5763,0.5763,0.5763,0.5763,0.5228,0.5284,0.5297,0.5369,0.5393,0.5445,0.5468,0.55,0.5529,0.5595,0.5636,0.5658,0.5695,0.5749,0.5796,0.5806,0.5825,0.5835,0.5844,0.5783,0.5775,0.5768,0.5755,0.5839,0.5839,0.5906,0.5906,0.5907]},{"header":{"parameterUnit":"m.s-1","parameterCategory":1,"la1":30.2991,"la2":30.254,"lo1":-89.0895,"lo2":-89.0444,"dy":0.0017,"dx":0.0017,"nx":28,"ny":28,"refTime":"2026-02-08T09:00:00:Z","depth":0,"parameterNumber":3,"parameterNumberName":"V-component_of_WINDS"},"data":[0,0,0,0,0,0,0,0,0,0,0,0,0,0,0,0,0,0,0,0,0,0,0,0,0,0,0,0,0,0,0,0,0,0,0,0,0,0,0,0,0,0,0,0,0,0,0,0,0,0,0,0,0,0,0,0,0,0,1.5961,1.596,0,1.5909,1.5909,1.5908,1.5883,1.5883,1.5883,1.5883,1.5826,1.5825,1.5823,0,0,0,0,0,0,0,0,0,0,0,0,0,1.6034,1.6033,1.5961,1.596,1.596,1.591,1.5909,1.5908,1.5883,1.5883,1.5883,1.5883,1.5827,1.5825,1.5823,0,0,0,0,0,0,0,0,0,0,0,0,0,1.5994,1.6032,1.5961,1.5941,1.5939,1.591,1.5909,1.5908,1.5883,1.5883,1.5883,1.5883,1.5827,1.5825,1.5823,1.5808,0,0,1.5816,1.5815,0,0,0,0,0,0,0,0,1.5996,1.5991,1.5945,1.5942,1.594,1.5903,1.5914,1.5874,1.5883,1.5904,1.5883,1.5883,1.5851,1.5847,1.5837,1.5806,1.5803,1.5816,1.5814,1.5813,1.5813,0,0,0,0,0,0,0,1.5999,1.5993,1.594,1.5944,1.5941,1.5933,1.5928,1.5906,1.5878,1.5902,1.59,1.5894,1.585,1.5839,1.5836,1.5803,1.5816,1.5814,1.5812,1.5811,1.5757,1.5756,0,0,0,0,0,0,1.6006,1.5996,1.5942,1.5939,1.5969,1.5932,1.5926,1.5914,1.5878,1.5873,1.5895,1.5893,1.5843,1.5838,1.5834,1.5814,1.5813,1.5811,1.581,1.5757,1.5756,1.5756,0,0,0,0,0,0,1.6007,1.6001,1.5944,1.5967,1.5959,1.5931,1.5918,1.5913,1.5903,1.5873,1.5867,1.5889,1.5843,1.5837,1.5815,1.5812,1.581,1.5808,1.5757,1.5757,1.5756,1.5776,0,0,0,0,0,0,1.601,1.6002,1.5997,1.5967,1.5958,1.5928,1.5918,1.5912,1.59,1.5898,1.5866,1.5861,1.5843,1.5819,1.5813,1.5809,1.5806,1.5757,1.5757,1.5756,1.5776,1.5777,1.5778,0,0,0,0,0,1.6012,1.6004,1.5997,1.5991,1.5952,1.5928,1.5922,1.5903,1.5899,1.5894,1.5874,1.5862,1.5814,1.5817,1.581,1.5805,1.5757,1.5757,1.5756,1.5775,1.5776,1.5778,0,0,0,0,0,0,1.6033,1.5999,1.5991,1.5973,1.5954,1.5923,1.5916,1.5905,1.5884,1.5883,1.5858,1.5851,1.5832,1.5816,1.582,1.5789,1.5784,1.5782,1.58,1.5801,1.5802,1.5806,1.5804,0,0,0,0,0,1.6035,1.602,1.5991,1.5978,1.5969,1.5944,1.5933,1.5919,1.5897,1.5889,1.5867,1.5846,1.5825,1.5812,1.5792,1.5773,1.5766,1.5767,1.5768,1.5769,1.5767,1.5756,1.5756,1.5756,1.5756,1.5756,0,0,1.604,1.602,1.6011,1.5981,1.5965,1.5948,1.5937,1.592,1.5907,1.5885,1.5864,1.5848,1.5822,1.5802,1.5791,1.5788,1.5766,1.5768,1.5769,1.5768,1.5756,1.5756,1.5756,1.5756,1.5756,1.5756,0,0,1.604,1.6024,1.6011,1.5995,1.597,1.5954,1.5951,1.5922,1.5911,1.589,1.5873,1.5857,1.5823,1.5805,1.5791,1.5785,1.5773,1.5779,1.5784,1.5773,1.5773,1.5773,1.5771,1.577,1.5778,1.5778,1.5778,0,1.6049,1.6025,1.6005,1.599,1.5977,1.5958,1.5944,1.5929,1.5898,1.5889,1.5886,1.5843,1.5824,1.5799,1.5798,1.5787,1.5782,1.5783,1.5775,1.5775,1.5774,1.5772,1.5771,1.5779,1.5779,1.5779,1.5779,0,1.6036,1.602,1.6012,1.5985,1.5971,1.5956,1.5934,1.5922,1.5909,1.5893,1.5871,1.5848,1.5823,1.5816,1.5803,1.5789,1.5788,1.578,1.5774,1.5776,1.5773,1.5772,1.5781,1.578,1.578,1.578,0,0,1.6048,1.6011,1.6008,1.5995,1.5967,1.5953,1.5937,1.5914,1.5904,1.5883,1.5869,1.584,1.5833,1.5818,1.5803,1.5794,1.579,1.5787,1.5786,1.5788,1.5773,1.5779,1.5778,1.5782,1.5782,1.5782,1.5775,0,1.6044,1.6016,1.5998,1.5977,1.5961,1.5943,1.5929,1.5909,1.5894,1.5877,1.5859,1.584,1.5832,1.5823,1.5813,1.5793,1.5787,1.5793,1.5767,1.5767,1.5774,1.5776,1.5782,1.5777,1.5774,1.5773,1.5773,0,1.6035,1.6017,1.5995,1.5968,1.5961,1.5949,1.5926,1.5911,1.5888,1.5877,1.586,1.5846,1.5827,1.5823,1.5796,1.5801,1.5789,1.5778,1.5777,1.5774,1.577,1.5772,1.5775,1.5774,1.5771,1.5771,1.5772,0,1.6046,1.6015,1.5998,1.5988,1.5956,1.5948,1.5934,1.5912,1.5899,1.5879,1.587,1.5847,1.5834,1.5817,1.5796,1.5795,1.5771,1.5765,1.5761,1.5761,1.5756,1.5757,1.5756,1.5749,1.5749,1.575,1.575,0,1.6043,1.603,1.6002,1.5991,1.5976,1.5955,1.594,1.5925,1.5905,1.589,1.5872,1.5858,1.5832,1.5815,1.5798,1.5778,1.5773,1.5763,1.5758,1.5764,1.5765,1.5756,1.5756,1.5749,1.5749,1.5749,1.5749,0,1.6052,1.6033,1.6013,1.5985,1.5978,1.5968,1.5943,1.5932,1.5916,1.5897,1.5891,1.5865,1.5844,1.5822,1.5792,1.5781,1.5762,1.5756,1.577,1.5768,1.5764,1.5765,1.5757,1.5755,1.575,1.575,1.575,0,1.6051,1.6041,1.6013,1.6003,1.599,1.5973,1.596,1.5939,1.5926,1.59,1.5891,1.5869,1.585,1.5816,1.5794,1.5771,1.5764,1.5763,1.5761,1.5767,1.5764,1.5765,1.5763,1.5764,1.5764,1.5764,1.5764,0,1.6052,1.6044,1.6027,1.6006,1.5992,1.5975,1.5956,1.5948,1.5924,1.591,1.5889,1.5874,1.5845,1.5822,1.5797,1.5781,1.5768,1.5766,1.5763,1.5769,1.5777,1.5772,1.5772,1.5766,1.5766,1.5765,1.5765,1.5765,1.6056,1.6046,1.6025,1.6007,1.5991,1.5975,1.5963,1.5946,1.5928,1.5903,1.5892,1.587,1.5847,1.5812,1.5797,1.5779,1.5775,1.5772,1.5771,1.577,1.5772,1.5781,1.5774,1.5774,1.5774,1.5774,1.5774,0,1.6056,1.6042,1.6025,1.6001,1.5987,1.5977,1.5957,1.5945,1.5926,1.5907,1.5889,1.5864,1.5842,1.5819,1.5795,1.5786,1.5779,1.578,1.578,1.5777,1.5776,1.5781,1.5786,1.5786,1.5786,1.5786,1.5786,1.5786,1.6054,1.6037,1.6026,1.6001,1.5986,1.5966,1.5955,1.5939,1.5924,1.5897,1.588,1.5865,1.5843,1.5818,1.5798,1.5791,1.5783,1.5786,1.5778,1.5778,1.5777,1.5776,1.578,1.5785,1.5785,1.578,1.5779,1.5779]}]]